GUSTAVUS current weather conditions

sailwx.info

Air temperature -0.6° C
Visibility: greater than 8.7 NM
Dewpoint -1.1° C

Last reported at 2017-Jan-18 05:56 UTC.
Time now 2017-Jan-18 08:05 UTC

Location: N 58°25' W 135°44'.
View on Google Maps.

See reports from other nearby stations

  
Tides and Currents Weather Stations Pressure Air Temp Water Temp Dewpoint Dewpoint Depression Visibility Wind Speed Wind Dir Waves Ship Positions
date/time (UTC)wind fromknots sea level pressurealtimeterstation pressurevisibilityair tempwater tempwave heightnotes
2017-Jan-18 05:56 8.7-0.6
2017-Jan-18 04:56 8.7-0.6
2017-Jan-18 03:56 360 4 8.7-0.6
2017-Jan-18 02:56 350 2 8.7-0.0
2017-Jan-18 01:56 320 4 8.7-0.0
2017-Jan-18 00:56 320 2 8.7 0.6
2017-Jan-17 23:56 320 2 8.7 1.1
2017-Jan-17 22:56 310 4 8.7 1.7
2017-Jan-17 21:56 320 4 8.7 1.7
2017-Jan-17 21:53 330 4 8.7 2.0
2017-Jan-17 20:31 250 2 6.1 1.0
2017-Jan-17 20:24 1.7 1.0 Mist.
2017-Jan-17 20:15 0.9 1.0 Mist.
2017-Jan-17 19:56 4.3 0.6 Mist.
2017-Jan-17 18:56 8.7-0.0
2017-Jan-17 18:39 8.7-0.0
2017-Jan-17 17:56 020 4 8.7-0.0
2017-Jan-17 17:31 030 4 2.6-0.0 Light snow. Mist.
2017-Jan-17 17:21 350 5 1.5 1.0 Light snow. Mist.
2017-Jan-17 16:56 300 4 8.7-0.0
2017-Jan-17 16:17 8.7-0.0
2017-Jan-17 15:56 8.7-0.0
2017-Jan-17 14:56 040 2 8.7-0.0 Precipitation.
2017-Jan-17 13:56 4.3 0.6 Light rain. Mist.
2017-Jan-17 13:07 070 5 2.6 1.0 Light snow. Mist.
2017-Jan-17 13:03 090 5 1.5 1.0 Light snow. Mist.
2017-Jan-17 12:56 130 4 1.3 0.6 Light snow. Mist.
2017-Jan-17 11:56 8.7 0.6 Light rain.
2017-Jan-17 10:56 8.7 1.1
2017-Jan-17 09:56 190 6 8.7 2.2 Light rain.
2017-Jan-17 09:51 200 5 8.7 2.0 Light rain.
2017-Jan-17 09:38 160 4 8.7 2.0 Light rain.
2017-Jan-17 09:06 250 5 5.2 2.0 Light rain. Mist.
2017-Jan-17 08:56 8.7 2.8 Light rain.
2017-Jan-17 07:56 110 5 8.7 2.8
2017-Jan-17 06:56 190 4 8.7 3.3
2017-Jan-17 06:17 150 5 8.7 3.0
2017-Jan-17 05:56 210 7 6.1 2.8 Rain.
2017-Jan-17 04:56 220 11 gusting 17 8.7 3.3
2017-Jan-17 03:56 210 8 gusting 18 7.8 3.9 Light rain.
2017-Jan-17 03:21 170 6 7.8 4.0 Light rain.
2017-Jan-17 02:56 160 6 4.3 4.4 Light rain. Mist.
2017-Jan-17 02:40 150 9 gusting 18 7.8 4.0 Light rain.
2017-Jan-17 00:56 140 15 gusting 21 8.7 5.0 Light rain.
2017-Jan-17 00:13 140 17 gusting 21 8.7 6.0 Light rain.
2017-Jan-16 23:56 140 19 gusting 25 5.2 5.6 Rain. Mist.
2017-Jan-16 22:56 130 20 gusting 27 8.7 5.6 Light rain.
2017-Jan-16 21:56 130 20 gusting 27 8.7 6.1 Light rain.
2017-Jan-16 20:56 140 20 7.8 6.1 Light rain.
2017-Jan-16 20:07 140 19 gusting 25 8.7 6.0 Light rain.
2017-Jan-16 19:56 140 20 gusting 24 6.9 5.6 Light rain.
2017-Jan-16 18:56 140 15 gusting 20 8.7 5.6 Light rain.
2017-Jan-16 18:30 140 17 7.8 6.0 Rain.
2017-Jan-16 18:13 140 18 gusting 22 8.7 6.0 Light rain.
2017-Jan-16 17:56 150 13 gusting 18 6.9 5.0 Light rain.
2017-Jan-16 17:18 160 9 8.7 5.0 Light rain.
2017-Jan-16 16:56 140 14 8.7 4.4 Light rain.
2017-Jan-16 15:56 130 18 gusting 24 8.7 4.4 Light rain.
2017-Jan-16 14:56 140 18 gusting 24 8.7 4.4 Light rain.
2017-Jan-16 13:56 130 20 gusting 22 8.7 4.4 Light rain.
2017-Jan-16 13:13 140 19 gusting 27 6.1 4.0 Light rain.
2017-Jan-16 12:56 140 20 gusting 27 8.7 5.0 Light rain.
2017-Jan-16 12:28 140 20 gusting 29 6.9 5.0 Light rain.
2017-Jan-16 12:21 140 19 gusting 25 7.8 5.0 Light rain.
2017-Jan-16 11:56 140 20 gusting 27 6.1 5.0 Light rain.
2017-Jan-16 10:56 140 15 gusting 27 5.2 5.0 Rain. Mist.
2017-Jan-16 09:56 140 18 gusting 24 4.3 5.6 Rain. Mist.
2017-Jan-16 08:56 140 13 8.7 5.6 Light rain.
2017-Jan-16 08:31 140 12 gusting 20 7.8 6.0 Light rain.
2017-Jan-16 08:13 140 14 gusting 24 6.9 6.0 Light rain.
2017-Jan-16 08:05 140 19 gusting 24 6.9 6.0 Rain.